User: anonymous   Login
Location: Theydon Bois
(51.6750°N, 0.1050°E)
Time: 15:49:56
(UTC+00:00)
Language:

Aureole 1 Rocket - Orbit

View from above orbital plane
View from above orbital plane
View from above satellite
View from above satellite

Ground track
Ground track

The orbit data is extracted from the following two-line orbital elements,

1  5730U 71119B   17345.92074749 +.00000559 +00000-0 +39130-4 0  9995
2  5730 073.8914 183.4293 0697270 029.4791 334.3830 14.02214336230614
Epoch (UTC): 11 December 2017 22:05:52
Eccentricity: 0.0697270
inclination: 73.8914°
perigee height: 379 km
apogee height: 1392 km
right ascension of ascending node: 183.4293°
argument of perigee: 29.4791°
revolutions per day: 14.02214336
mean anomaly at epoch: 334.3830°
orbit number at epoch: 23061

The dashed part of the orbit path shows where the satellite is in the earth's shadow,  

DLR